"Timestamp","TZ","WindDir_Mean (deg)","WindSpd_Mean (km/h)","WindSpd_Min (km/h)","WindSpd_Max (km/h)","Temp_Mean (deg)","RH_Mean (%)","MSLP_Mean (hPa)","Rain_Acc (mm)","Rain_Intensity (mm/h)","Hail_Acc (hits/cm2)","Hail_Intensity (hits/cm2hr)","Solar_Mean (W/m2)"
2018/07/01 00:00:00.005,n,265,1.08,1.08,1.44,17.5,83.4,1027.12,0,0,0,0,0.025253
2018/07/01 00:01:00.000,n,257,1.8,1.8,2.16,17.5,83.4,1027.12,0,0,0,0,0.030479
2018/07/01 00:02:00.000,n,249,2.52,2.52,2.88,17.5,83.5,1027.12,0,0,0,0,0.027008
2018/07/01 00:03:00.000,n,251,2.52,2.52,2.88,17.5,83.5,1027.12,0,0,0,0,0.037422
2018/07/01 00:04:00.000,n,263,2.16,1.8,2.52,17.5,83.6,1027.12,0,0,0,0,0.030479
2018/07/01 00:05:00.008,n,277,0.72,0.72,0.72,17.4,83.6,1027.12,0,0,0,0,0.032196
2018/07/01 00:06:00.006,n,240,0.72,0.36,0.72,17.4,83.5,1027.12,0,0,0,0,0.026131
2018/07/01 00:07:00.004,n,54,1.08,0.72,1.08,17.4,83.5,1027.12,0,0,0,0,0.027008
2018/07/01 00:08:00.002,n,75,1.08,1.08,1.44,17.4,83.6,1027.12,0,0,0,0,0.033073
2018/07/01 00:09:00.015,n,67,1.44,1.44,1.8,17.4,83.5,1027.12,0,0,0,0,0.030479
2018/07/01 00:10:00.000,n,93,1.8,1.44,1.8,17.4,83.4,1027.12,0,0,0,0,0.028763
2018/07/01 00:11:00.000,n,62,1.8,1.8,1.8,17.4,83.2,1027.12,0,0,0,0,0.025253
2018/07/01 00:12:00.000,n,87,1.44,1.08,1.8,17.3,83.2,1027.22,0,0,0,0,0.031357
2018/07/01 00:13:00.004,n,102,0.36,0,0.72,17.3,83.2,1027.22,0,0,0,0,0.027847
2018/07/01 00:14:00.002,n,100,0.36,0.36,0.72,17.3,83.3,1027.22,0,0,0,0,0.030479
2018/07/01 00:15:00.000,n,104,1.08,0.72,1.08,17.2,83.3,1027.22,0,0,0,0,0.027847
2018/07/01 00:16:00.012,n,123,1.08,1.08,1.44,17.2,83.3,1027.22,0,0,0,0,0.025253
2018/07/01 00:17:00.009,n,148,1.8,1.08,2.52,17.2,83.3,1027.12,0,0,0,0,0.029602
2018/07/01 00:18:00.007,n,146,3.96,3.96,4.32,17.2,83.7,1027.12,0,0,0,0,0.023499
2018/07/01 00:19:00.000,n,159,5.4,5.04,5.4,17.2,84.1,1027.12,0,0,0,0,0.026131
2018/07/01 00:20:00.000,n,161,4.32,3.6,5.4,17.2,84.2,1027.12,0,0,0,0,0.023499
2018/07/01 00:21:00.002,n,167,5.4,3.6,6.84,17.2,84.4,1027.12,0,0,0,0,0.023499
2018/07/01 00:22:00.000,n,159,6.48,6.12,6.84,17.2,84.4,1027.12,0,0,0,0,0.024414
2018/07/01 00:23:00.000,n,157,5.76,5.04,6.48,17.2,84.3,1027.12,0,0,0,0,0.025253
2018/07/01 00:24:00.009,n,162,6.12,6.12,6.48,17.2,84.3,1027.12,0,0,0,0,0.027008
2018/07/01 00:25:00.006,n,164,7.2,6.84,7.56,17.2,84.2,1027.12,0,0,0,0,0.027847
2018/07/01 00:26:00.003,n,152,4.32,3.6,5.04,17.2,84.1,1027.12,0,0,0,0,0.021782
2018/07/01 00:27:00.001,n,160,4.32,3.96,4.68,17.1,84.1,1027.12,0,0,0,0,0.033073
2018/07/01 00:28:00.000,n,159,4.32,3.96,4.68,17.1,84.3,1027.12,0,0,0,0,0.027008
2018/07/01 00:30:00.004,n,135,3.24,2.52,3.96,17.1,84.4,1027.12,0,0,0,0,0.029564
2018/07/01 00:31:00.000,n,154,4.68,4.32,5.4,17,84.6,1027.12,0,0,0,0,0.033913
2018/07/01 00:32:00.000,n,201,1.08,0.36,2.16,17,84.6,1027.12,0,0,0,0,0.028725
2018/07/01 00:33:00.009,n,217,1.08,0.36,1.44,17,84.7,1027.12,0,0,0,0,0.028725
2018/07/01 00:34:00.007,n,166,6.48,6.12,6.84,17,85,1027.12,0,0,0,0,0.036545
2018/07/01 00:35:00.004,n,162,5.76,5.4,6.48,17.1,85.1,1027.12,0,0,0,0,0.031319
2018/07/01 00:36:00.001,n,157,7.56,7.2,8.28,17.1,85.2,1027.22,0,0,0,0,0.029564
2018/07/01 00:37:00.000,n,184,5.76,5.4,6.12,17.1,85.1,1027.22,0,0,0,0,0.031319
2018/07/01 00:38:00.000,n,156,5.4,5.04,6.48,17.1,84.9,1027.22,0,0,0,0,0.032196
2018/07/01 00:39:00.000,n,165,6.48,5.76,7.56,17.1,84.9,1027.22,0,0,0,0,0.030479
2018/07/01 00:40:00.005,n,166,10.08,7.56,11.16,17.1,84.9,1027.22,0,0,0,0,0.028725
2018/07/01 00:41:00.003,n,179,10.08,9.36,11.52,17,85,1027.22,0,0,0,0,0.029564
2018/07/01 00:42:00.000,n,163,8.64,8.28,9.36,17,85.2,1027.22,0,0,0,0,0.030479
2018/07/01 00:43:00.000,n,144,6.12,5.76,6.84,17,85.1,1027.22,0,0,0,0,0.033073
2018/07/01 00:44:00.010,n,123,3.24,2.16,5.4,17,85.1,1027.22,0,0,0,0,0.033073
2018/07/01 00:45:00.007,n,148,6.48,6.12,7.2,17,85.2,1027.22,0,0,0,0,0.033913
2018/07/01 00:46:00.000,n,170,9.36,8.64,9.72,17,85.4,1027.22,0,0,0,0,0.038261
2018/07/01 00:47:00.001,n,160,2.88,1.44,4.32,17,85.3,1027.22,0,0,0,0,0.029564
2018/07/01 00:48:00.000,n,144,5.76,5.04,6.84,17.1,85.4,1027.12,0,0,0,0,0.031319
2018/07/01 00:49:00.000,n,168,6.12,5.76,6.84,17.1,85.3,1027.12,0,0,0,0,0.031319
2018/07/01 00:50:00.000,n,172,6.12,4.68,7.2,17.1,85.3,1027.12,0,0,0,0,0.027847
2018/07/01 00:51:00.007,n,161,3.6,2.52,5.04,17.1,85.3,1027.12,0,0,0,0,0.031319
2018/07/01 00:52:00.004,n,159,6.12,5.04,6.48,17.1,85.3,1027.12,0,0,0,0,0.032196
2018/07/01 00:53:00.001,n,158,4.32,3.96,5.04,17.1,85.3,1027.12,0,0,0,0,0.033073
2018/07/01 00:54:00.015,n,140,5.04,2.16,5.76,17.1,85.4,1027.12,0,0,0,0,0.035667
2018/07/01 00:55:00.000,n,153,3.96,3.6,4.32,17,85.2,1027.12,0,0,0,0,0.029564
2018/07/01 00:56:00.000,n,138,3.96,3.6,4.68,17,85.3,1027.12,0,0,0,0,0.033913
2018/07/01 00:57:00.000,n,141,3.6,3.24,3.96,17,85.3,1027.12,0,0,0,0,0.033073
2018/07/01 00:58:00.004,n,163,2.88,2.16,3.24,17,85.2,1027.12,0,0,0,0,0.031319
2018/07/01 00:59:00.001,n,158,5.04,4.32,5.4,17,85.4,1027.02,0,0,0,0,0.032196
2018/07/01 01:00:00.000,n,169,7.56,7.2,7.56,17,85.7,1027.02,0,0,0,0,0.036545
2018/07/01 01:01:00.011,n,172,7.56,6.12,8.64,17,85.8,1027.02,0,0,0,0,0.032196
2018/07/01 01:02:00.008,n,157,6.84,6.48,7.92,17,85.9,1027.02,0,0,0,0,0.033073
2018/07/01 01:03:00.006,n,161,5.04,4.68,5.76,17,85.7,1026.92,0,0,0,0,0.033913
2018/07/01 01:04:00.000,n,183,2.52,1.44,3.24,17,85.6,1026.92,0,0,0,0,0.034828
2018/07/01 01:05:00.000,n,151,2.88,2.52,3.24,17,85.5,1026.92,0,0,0,0,0.032196
2018/07/01 01:06:00.000,n,114,1.08,0.72,1.44,16.9,85.6,1026.92,0,0,0,0,0.031319
2018/07/01 01:07:00.000,n,172,3.24,2.52,3.96,16.9,85.7,1026.92,0,0,0,0,0.031319
2018/07/01 01:08:00.008,n,124,0.36,0,0.72,16.9,85.7,1026.92,0,0,0,0,0.030479
2018/07/01 01:09:00.005,n,148,3.96,0.72,4.68,16.9,85.7,1026.92,0,0,0,0,0.028725
2018/07/01 01:10:00.001,n,140,6.48,5.76,7.2,16.9,86.1,1026.92,0,0,0,0,0.030479
2018/07/01 01:11:00.000,n,150,2.52,2.16,2.88,17,85.8,1026.92,0,0,0,0,0.026131
2018/07/01 01:12:00.011,n,145,3.24,2.88,3.96,17,85.8,1026.92,0,0,0,0,0.02697
2018/07/01 01:13:00.000,n,145,1.08,1.08,1.44,17,86,1026.92,0,0,0,0,0.028725
2018/07/01 01:14:00.000,n,165,3.6,3.6,4.32,17,86,1026.92,0,0,0,0,0.025215
2018/07/01 01:15:00.002,n,128,2.88,2.52,2.88,17,86.2,1026.92,0,0,0,0,0.02697
2018/07/01 01:16:00.000,n,146,3.24,1.44,4.68,17,86.2,1026.92,0,0,0,0,0.02697
2018/07/01 01:17:00.000,n,94,1.08,0.72,1.44,17,85.8,1026.92,0,0,0,0,0.028725
2018/07/01 01:18:00.009,n,151,0.36,0,0.36,17,85.5,1026.92,0,0,0,0,0.032196
2018/07/01 01:19:00.006,n,124,1.08,0.36,1.44,17,85.6,1026.92,0,0,0,0,0.028725
2018/07/01 01:20:00.004,n,104,0.72,0.72,1.08,16.9,85.6,1026.92,0,0,0,0,0.02697
2018/07/01 01:21:00.002,n,226,1.08,0.72,1.08,16.9,85.7,1026.92,0,0,0,0,0.033913
2018/07/01 01:22:00.000,n,149,1.8,1.8,1.8,16.9,85.8,1026.92,0,0,0,0,0.027847
2018/07/01 01:23:00.000,n,155,0.72,0.36,1.08,16.9,85.7,1026.92,0,0,0,0,0.029564
2018/07/01 01:24:00.000,n,120,1.08,1.08,1.44,16.9,85.8,1026.82,0,0,0,0,0.030479
2018/07/01 01:25:00.000,n,47,1.44,0.72,1.8,16.9,85.8,1026.82,0,0,0,0,0.026131
2018/07/01 01:26:00.005,n,197,0.72,0.36,1.08,16.9,85.8,1026.82,0,0,0,0,0.033073
2018/07/01 01:27:00.002,n,125,1.8,1.8,2.16,16.9,85.8,1026.82,0,0,0,0,0.031319
2018/07/01 01:28:00.000,n,114,3.6,3.24,4.32,16.9,86.1,1026.82,0,0,0,0,0.033913
2018/07/01 01:29:00.013,n,126,2.88,2.52,3.24,16.9,86,1026.82,0,0,0,0,0.02697
2018/07/01 01:30:00.010,n,43,0.72,0.72,1.08,16.9,85.9,1026.92,0,0,0,0,0.028725
2018/07/01 01:31:00.000,n,90,1.08,0.36,1.08,16.9,85.6,1026.92,0,0,0,0,0.033913
2018/07/01 01:32:00.000,n,50,1.08,0.72,1.08,16.8,85.5,1026.92,0,0,0,0,0.033913
2018/07/01 01:33:00.001,n,300,0.72,0.36,1.08,16.8,85.7,1026.92,0,0,0,0,0.032196
2018/07/01 01:34:00.000,n,297,0.36,0.36,0.72,16.8,85.9,1026.82,0,0,0,0,0.034828
2018/07/01 01:35:00.000,n,94,0.36,0.36,0.36,16.8,85.9,1026.92,0,0,0,0,0.029564
2018/07/01 01:36:00.008,n,213,1.08,0.72,1.44,16.8,86,1026.82,0,0,0,0,0.034828
2018/07/01 01:37:00.005,n,124,0.72,0.36,0.72,16.8,86,1026.82,0,0,0,0,0.033073
2018/07/01 01:38:00.002,n,266,1.08,1.08,1.8,16.8,85.9,1026.82,0,0,0,0,0.033913
2018/07/01 01:39:00.015,n,280,1.8,1.8,2.16,16.8,86,1026.82,0,0,0,0,0.032196
2018/07/01 01:40:00.000,n,233,1.08,0,1.44,16.8,86,1026.72,0,0,0,0,0.030479
2018/07/01 01:41:00.000,n,310,1.44,1.08,2.16,16.8,86.1,1026.72,0,0,0,0,0.038261
2018/07/01 01:42:00.000,n,6,1.08,0.36,1.44,16.8,86,1026.72,0,0,0,0,0.033913
2018/07/01 01:43:00.004,n,4,1.08,0.72,1.08,16.9,86,1026.72,0,0,0,0,0.031319
2018/07/01 01:44:00.001,n,350,1.44,1.08,1.8,16.9,85.9,1026.72,0,0,0,0,0.030479
2018/07/01 01:45:00.000,n,262,2.88,1.8,3.24,16.9,85.8,1026.72,0,0,0,0,0.032196
2018/07/01 01:46:00.011,n,252,2.16,1.8,2.16,16.8,85.7,1026.72,0,0,0,0,0.032196
2018/07/01 01:47:00.008,n,276,2.52,2.16,2.88,16.8,85.7,1026.72,0,0,0,0,0.035667
2018/07/01 01:48:00.005,n,261,1.8,1.44,1.8,16.8,85.7,1026.72,0,0,0,0,0.033073
2018/07/01 01:50:00.000,n,257,1.8,1.44,2.16,16.700002,85.6,1026.72,0,0,0,0,0.026131
2018/07/01 01:51:00.004,n,255,1.8,1.44,2.16,16.700002,85.6,1026.72,0,0,0,0,0.026131
2018/07/01 01:52:00.001,n,247,2.52,2.52,2.88,16.700002,85.6,1026.72,0,0,0,0,0.033073
2018/07/01 01:53:00.000,n,271,2.88,1.8,4.32,16.700002,85.7,1026.72,0,0,0,0,0.026131
2018/07/01 01:54:00.000,n,270,1.8,1.08,1.8,16.700002,85.8,1026.72,0,0,0,0,0.024376
2018/07/01 01:55:00.009,n,274,1.8,1.44,2.16,16.6,85.8,1026.72,0,0,0,0,0.028725
2018/07/01 01:56:00.006,n,255,2.52,2.16,2.52,16.6,85.9,1026.62,0,0,0,0,0.027847
2018/07/01 01:57:00.003,n,268,2.16,1.8,2.16,16.6,85.9,1026.62,0,0,0,0,0.024376
2018/07/01 01:58:00.000,n,262,1.8,1.44,2.52,16.6,86,1026.62,0,0,0,0,0.027008
2018/07/01 01:59:00.000,n,282,1.8,1.8,1.8,16.6,86,1026.62,0,0,0,0,0.023499
2018/07/01 02:00:00.000,n,272,1.08,1.08,1.08,16.6,86,1026.62,0,0,0,0,0.024376
2018/07/01 02:01:00.000,n,280,1.08,0.72,1.08,16.6,86,1026.62,0,0,0,0,0.028725
2018/07/01 02:02:00.005,n,263,1.8,1.08,2.52,16.6,86,1026.62,0,0,0,0,0.027008
2018/07/01 02:03:00.004,n,252,1.8,1.8,2.16,16.6,86.1,1026.62,0,0,0,0,0.026131
2018/07/01 02:04:00.001,n,260,1.8,1.8,1.8,16.6,86,1026.62,0,0,0,0,0.026131
2018/07/01 02:05:00.000,n,251,2.88,2.52,3.24,16.5,86.1,1026.52,0,0,0,0,0.023499
2018/07/01 02:06:00.012,n,258,2.16,1.8,2.52,16.5,86.2,1026.52,0,0,0,0,0.022621
2018/07/01 02:07:00.000,n,255,2.88,2.16,3.24,16.5,86.2,1026.52,0,0,0,0,0.023499
2018/07/01 02:08:00.000,n,270,4.32,3.96,4.68,16.5,86.3,1026.52,0,0,0,0,0.029602
2018/07/01 02:09:00.004,n,267,4.68,4.68,5.4,16.5,86.3,1026.52,0,0,0,0,0.027008
2018/07/01 02:10:00.002,n,264,5.04,4.68,5.4,16.5,86.3,1026.52,0,0,0,0,0.024376
2018/07/01 02:11:00.000,n,253,3.6,2.52,4.32,16.5,86.4,1026.52,0,0,0,0,0.021782
2018/07/01 02:12:00.000,n,260,4.68,4.68,5.04,16.5,86.4,1026.52,0,0,0,0,0.020027
2018/07/01 02:13:00.009,n,274,4.32,4.32,5.04,16.5,86.5,1026.52,0,0,0,0,0.021782
2018/07/01 02:14:00.006,n,268,4.32,4.32,4.68,16.5,86.6,1026.52,0,0,0,0,0.027847
2018/07/01 02:15:00.003,n,305,1.8,1.8,2.16,16.5,86.6,1026.52,0,0,0,0,0.024376
2018/07/01 02:16:00.000,n,286,2.52,2.52,2.88,16.5,86.6,1026.52,0,0,0,0,0.025253
2018/07/01 02:17:00.000,n,302,0.36,0,1.08,16.5,86.7,1026.52,0,0,0,0,0.026131
2018/07/01 02:18:00.000,n,280,0.36,0.36,0.72,16.5,86.6,1026.52,0,0,0,0,0.027847
2018/07/01 02:19:00.000,n,287,1.08,0.72,1.08,16.5,86.7,1026.52,0,0,0,0,0.025253
2018/07/01 02:20:00.005,n,291,1.08,1.08,1.44,16.5,86.8,1026.52,0,0,0,0,0.027008
2018/07/01 02:21:00.002,n,288,1.8,1.08,2.16,16.5,86.8,1026.52,0,0,0,0,0.021782
2018/07/01 02:22:00.000,n,318,0.72,0.36,1.08,16.5,86.8,1026.52,0,0,0,0,0.021782
2018/07/01 02:23:00.012,n,304,2.16,1.44,3.24,16.5,86.9,1026.52,0,0,0,0,0.018272
2018/07/01 02:24:00.010,n,324,1.8,1.44,2.16,16.5,87.1,1026.52,0,0,0,0,0.032234
2018/07/01 02:25:00.000,n,303,1.08,0.36,1.08,16.5,87.1,1026.52,0,0,0,0,0.039215
2018/07/01 02:26:00.000,n,299,2.16,2.16,2.16,16.5,87.1,1026.52,0,0,0,0,0.038338
2018/07/01 02:27:00.000,n,65,0.36,0,1.08,16.5,87.1,1026.52,0,0,0,0,0.035706
2018/07/01 02:28:00.000,n,176,0.36,0,0.72,16.6,87,1026.52,0,0,0,0,0.039215
2018/07/01 02:29:00.007,n,186,0.36,0,0.36,16.6,86.9,1026.52,0,0,0,0,0.039215
2018/07/01 02:30:00.004,n,57,0.36,0.36,0.72,16.6,86.8,1026.52,0,0,0,0,0.039215
2018/07/01 02:31:00.001,n,167,1.08,1.08,1.44,16.6,86.8,1026.52,0,0,0,0,0.040054
2018/07/01 02:32:00.000,n,147,1.08,1.08,1.08,16.6,86.9,1026.52,0,0,0,0,0.038338
2018/07/01 02:33:00.012,n,145,1.08,0.36,1.44,16.6,86.9,1026.52,0,0,0,0,0.034828
2018/07/01 02:34:00.000,n,137,2.16,1.8,2.52,16.6,87,1026.52,0,0,0,0,0.035706
2018/07/01 02:35:00.000,n,212,0.72,0.36,1.08,16.6,87.1,1026.52,0,0,0,0,0.033989
2018/07/01 02:36:00.003,n,115,0.72,0.72,0.72,16.6,87,1026.52,0,0,0,0,0.034828
2018/07/01 02:37:00.001,n,119,0.36,0,0.72,16.6,87.1,1026.52,0,0,0,0,0.036583
2018/07/01 02:38:00.000,n,232,0.72,0.36,1.08,16.6,87,1026.52,0,0,0,0,0.038338
2018/07/01 02:39:00.010,n,291,0.72,0.36,1.08,16.6,86.9,1026.52,0,0,0,0,0.038338
2018/07/01 02:40:00.008,n,22,0.36,0.36,1.08,16.6,86.9,1026.52,0,0,0,0,0.038338
2018/07/01 02:41:00.005,n,259,1.44,1.44,1.44,16.700002,86.9,1026.42,0,0,0,0,0.043564
2018/07/01 02:42:00.002,n,224,0.36,0.36,0.36,16.700002,86.9,1026.42,0,0,0,0,0.039215
2018/07/01 02:43:00.000,n,264,2.52,2.16,2.52,16.700002,86.9,1026.52,0,0,0,0,0.040932
2018/07/01 02:44:00.000,n,265,1.8,1.44,2.16,16.700002,87,1026.52,0,0,0,0,0.040932
2018/07/01 02:45:00.000,n,51,0.72,0.36,1.08,16.700002,87.1,1026.52,0,0,0,0,0.040932
2018/07/01 02:46:00.000,n,59,1.44,0.36,2.52,16.700002,86.9,1026.52,0,0,0,0,0.040932
2018/07/01 02:47:00.006,n,48,2.88,2.52,3.24,16.700002,86.7,1026.62,0,0,0,0,0.040054
2018/07/01 02:48:00.003,n,20,2.16,2.16,2.52,16.700002,86.8,1026.62,0,0,0,0,0.040932
2018/07/01 02:49:00.000,n,209,0.36,0,0.36,16.700002,86.8,1026.62,0,0,0,0,0.040054
2018/07/01 02:50:00.014,n,290,3.24,2.88,3.6,16.700002,86.7,1026.62,0,0,0,0,0.040054
2018/07/01 02:51:00.011,n,262,2.16,1.44,3.24,16.700002,86.8,1026.62,0,0,0,0,0.040054
2018/07/01 02:52:00.000,n,259,4.32,3.96,4.68,16.700002,86.8,1026.62,0,0,0,0,0.043564
2018/07/01 02:53:00.000,n,253,4.68,4.32,4.68,16.700002,86.9,1026.62,0,0,0,0,0.043564
2018/07/01 02:54:00.002,n,268,3.6,3.6,3.96,16.700002,86.8,1026.62,0,0,0,0,0.043564
2018/07/01 02:55:00.000,n,266,3.6,3.24,3.96,16.700002,86.7,1026.62,0,0,0,0,0.044403
2018/07/01 02:56:00.000,n,256,2.88,2.16,3.6,16.700002,86.8,1026.62,0,0,0,0,0.044403
2018/07/01 02:57:00.010,n,274,1.8,1.8,2.16,16.700002,86.8,1026.52,0,0,0,0,0.046196
2018/07/01 02:58:00.008,n,271,0.36,0,0.72,16.700002,86.8,1026.52,0,0,0,0,0.047913
2018/07/01 02:59:00.005,n,226,1.08,0.72,1.08,16.700002,86.8,1026.52,0,0,0,0,0.04528
2018/07/01 03:00:00.003,n,243,1.44,1.08,1.8,16.700002,86.8,1026.42,0,0,0,0,0.046196
2018/07/01 03:01:00.000,n,257,2.16,1.8,2.52,16.700002,86.8,1026.42,0,0,0,0,0.04528
2018/07/01 03:02:00.000,n,217,2.88,2.16,3.24,16.700002,86.9,1026.32,0,0,0,0,0.04528
2018/07/01 03:03:00.000,n,239,1.08,0.72,1.44,16.700002,86.9,1026.32,0,0,0,0,0.051384
2018/07/01 03:04:00.000,n,266,1.44,1.08,2.16,16.700002,86.9,1026.32,0,0,0,0,0.047913
2018/07/01 03:05:00.004,n,240,0.72,0.36,1.44,16.700002,87,1026.32,0,0,0,0,0.044403
2018/07/01 03:06:00.002,n,48,1.8,1.44,2.16,16.700002,86.9,1026.22,0,0,0,0,0.046196
2018/07/01 03:07:00.000,n,53,1.44,1.44,1.8,16.700002,86.8,1026.22,0,0,0,0,0.046196
2018/07/01 03:08:00.012,n,128,0.72,0.36,1.08,16.8,86.9,1026.22,0,0,0,0,0.047913
2018/07/01 03:09:00.010,n,201,0.36,0,0.72,16.8,86.8,1026.22,0,0,0,0,0.050545
2018/07/01 03:10:00.000,n,44,1.44,0.36,1.8,16.8,86.7,1026.22,0,0,0,0,0.04879
2018/07/01 03:11:00.000,n,56,2.16,1.8,2.52,16.8,86.7,1026.12,0,0,0,0,0.049629
2018/07/01 03:12:00.000,n,96,2.52,2.16,3.24,16.700002,86.6,1026.12,0,0,0,0,0.047913
2018/07/01 03:13:00.000,n,127,3.24,3.24,3.6,16.700002,86.4,1026.12,0,0,0,0,0.04879
2018/07/01 03:14:00.000,n,93,2.16,1.44,3.24,16.700002,86.5,1026.02,0,0,0,0,0.047913
2018/07/01 03:15:00.008,n,125,1.8,1.44,2.16,16.700002,86.5,1026.02,0,0,0,0,0.046196
2018/07/01 03:16:00.005,n,96,1.08,0.72,1.08,16.700002,86.6,1026.02,0,0,0,0,0.04879
2018/07/01 03:17:00.002,n,127,1.08,1.08,1.8,16.6,86.6,1026.02,0,0,0,0,0.044403
2018/07/01 03:18:00.000,n,243,1.44,0.72,2.16,16.6,86.7,1026.02,0,0,0,0,0.04879
2018/07/01 03:19:00.000,n,267,2.88,1.44,3.96,16.6,86.9,1026.02,0,0,0,0,0.04528
2018/07/01 03:20:00.000,n,281,2.52,2.16,3.24,16.6,87,1026.12,0,0,0,0,0.04879
2018/07/01 03:21:00.000,n,328,0.72,0.36,1.44,16.700002,87.1,1026.12,0,0,0,0,0.046196
2018/07/01 03:22:00.005,n,35,0.36,0,0.36,16.700002,87,1026.12,0,0,0,0,0.046196
2018/07/01 03:23:00.002,n,285,1.44,0.72,1.44,16.700002,86.9,1026.12,0,0,0,0,0.046196
2018/07/01 03:24:00.000,n,269,0.36,0,0.72,16.700002,86.9,1026.12,0,0,0,0,0.052261
2018/07/01 03:25:00.000,n,65,1.08,1.08,1.44,16.700002,86.9,1026.12,0,0,0,0,0.044403
2018/07/01 03:26:00.009,n,38,1.8,1.44,2.16,16.700002,86.8,1026.12,0,0,0,0,0.046196
2018/07/01 03:28:00.000,n,192,0.72,0.36,1.08,16.700002,86.8,1026.12,0,0,0,0,0.026131
2018/07/01 03:29:00.000,n,177,0.72,0.72,1.44,16.700002,86.9,1026.12,0,0,0,0,0.02964
2018/07/01 03:30:00.000,n,275,1.8,1.8,2.52,16.700002,86.9,1026.12,0,0,0,0,0.027008
2018/07/01 03:31:00.000,n,273,2.52,1.44,3.6,16.700002,87,1026.12,0,0,0,0,0.028763
2018/07/01 03:32:00.005,n,279,1.08,0.72,1.44,16.700002,87,1026.22,0,0,0,0,0.02964
2018/07/01 03:33:00.002,n,293,1.8,1.44,2.52,16.700002,87,1026.22,0,0,0,0,0.028763
2018/07/01 03:34:00.000,n,252,1.44,1.08,1.8,16.700002,87,1026.22,0,0,0,0,0.033989
2018/07/01 03:35:00.012,n,250,1.8,1.8,2.16,16.700002,87,1026.22,0,0,0,0,0.035706
2018/07/01 03:36:00.009,n,355,0.72,0.36,1.08,16.700002,87.1,1026.22,0,0,0,0,0.036621
2018/07/01 03:37:00.000,n,334,0.72,0.36,0.72,16.700002,87.1,1026.22,0,0,0,0,0.03746
2018/07/01 03:38:00.000,n,9,2.16,1.44,2.16,16.700002,87.1,1026.22,0,0,0,0,0.035706
2018/07/01 03:39:00.001,n,344,1.08,1.08,1.44,16.700002,87.2,1026.22,0,0,0,0,0.030479
2018/07/01 03:40:00.000,n,127,3.96,3.24,5.04,16.8,87.2,1026.32,0,0,0,0,0.028763
2018/07/01 03:41:00.000,n,123,2.16,1.8,2.52,16.8,87.1,1026.32,0,0,0,0,0.031357
2018/07/01 03:42:00.008,n,188,0.72,0.36,1.08,16.8,87.1,1026.32,0,0,0,0,0.030479
2018/07/01 03:43:00.005,n,136,4.32,3.96,4.68,16.8,87,1026.32,0,0,0,0,0.02964
2018/07/01 03:44:00.002,n,160,3.6,3.24,3.96,16.8,87,1026.32,0,0,0,0,0.030479
2018/07/01 03:45:00.016,n,162,6.12,5.4,6.12,16.8,87,1026.22,0,0,0,0,0.035706
2018/07/01 03:46:00.000,n,201,1.8,1.44,2.16,16.8,87,1026.22,0,0,0,0,0.033112
2018/07/01 03:47:00.000,n,24,2.88,2.16,3.24,16.8,87.1,1026.22,0,0,0,0,0.030479
2018/07/01 03:48:00.000,n,347,1.44,1.08,2.16,16.8,87,1026.22,0,0,0,0,0.02964
2018/07/01 03:49:00.004,n,30,2.88,2.52,3.6,16.8,86.9,1026.22,0,0,0,0,0.031357
2018/07/01 03:50:00.002,n,161,0.36,0.36,0.36,16.8,87,1026.22,0,0,0,0,0.038338
2018/07/01 03:51:00.000,n,82,3.6,2.88,4.32,16.9,86.9,1026.22,0,0,0,0,0.039215
2018/07/01 03:52:00.012,n,102,1.8,1.44,2.16,16.9,86.8,1026.32,0,0,0,0,0.031357
2018/07/01 03:53:00.009,n,47,1.8,0.72,2.52,16.8,86.8,1026.32,0,0,0,0,0.033989
2018/07/01 03:54:00.006,n,299,1.44,1.08,1.44,16.9,86.8,1026.32,0,0,0,0,0.033989
2018/07/01 03:55:00.000,n,109,1.8,1.44,2.52,16.9,86.7,1026.32,0,0,0,0,0.040932
2018/07/01 03:56:00.000,n,270,1.08,0,1.8,16.9,86.6,1026.32,0,0,0,0,0.033989
2018/07/01 03:57:00.000,n,92,1.44,1.08,1.8,16.8,86.7,1026.32,0,0,0,0,0.035706
2018/07/01 03:58:00.000,n,326,1.08,0,1.44,16.9,86.6,1026.32,0,0,0,0,0.035706
2018/07/01 03:59:00.008,n,310,1.8,1.08,2.16,16.9,86.4,1026.32,0,0,0,0,0.033989
2018/07/01 04:00:00.005,n,1,1.44,0.72,2.16,16.8,86.4,1026.32,0,0,0,0,0.03746
2018/07/01 04:01:00.002,n,129,2.52,1.44,3.24,16.8,86.5,1026.32,0,0,0,0,0.036621
2018/07/01 04:02:00.000,n,148,5.4,5.04,5.76,16.8,86.3,1026.32,0,0,0,0,0.033989
2018/07/01 04:03:00.013,n,130,4.32,3.96,4.68,16.8,86.2,1026.32,0,0,0,0,0.042686
2018/07/01 04:04:00.000,n,133,4.68,2.16,7.92,16.8,86.2,1026.32,0,0,0,0,0.034828
2018/07/01 04:05:00.000,n,143,5.4,1.08,7.56,16.8,86.2,1026.32,0,0,0,0,0.036621
2018/07/01 04:06:00.005,n,166,7.92,6.12,9,16.8,86,1026.32,0,0,0,0,0.038338
2018/07/01 04:07:00.002,n,171,6.12,3.6,7.56,16.700002,86,1026.32,0,0,0,0,0.03746
2018/07/01 04:08:00.000,n,130,5.04,4.32,5.76,16.700002,86.1,1026.32,0,0,0,0,0.033989
2018/07/01 04:09:00.000,n,170,7.92,6.48,8.64,16.700002,86.2,1026.32,0,0,0,0,0.034828
2018/07/01 04:10:00.009,n,167,7.92,6.48,8.28,16.700002,86.3,1026.32,0,0,0,0,0.03746
2018/07/01 04:11:00.006,n,149,5.76,5.4,5.76,16.700002,86.4,1026.32,0,0,0,0,0.033989
2018/07/01 04:12:00.003,n,157,5.04,4.32,5.76,16.700002,86.5,1026.42,0,0,0,0,0.033989
2018/07/01 04:13:00.001,n,167,6.84,5.04,8.28,16.700002,86.4,1026.42,0,0,0,0,0.040054
2018/07/01 04:14:00.000,n,157,7.56,5.04,8.28,16.6,86.5,1026.42,0,0,0,0,0.033989
2018/07/01 04:15:00.000,n,165,4.32,2.88,5.76,16.6,86.6,1026.42,0,0,0,0,0.038338
2018/07/01 04:16:00.000,n,154,5.04,4.68,5.76,16.6,86.6,1026.42,0,0,0,0,0.036621
2018/07/01 04:17:00.004,n,157,5.04,4.32,6.12,16.6,86.6,1026.42,0,0,0,0,0.039215
2018/07/01 04:18:00.002,n,175,4.32,3.6,4.68,16.6,86.6,1026.42,0,0,0,0,0.035706
2018/07/01 04:19:00.000,n,163,3.24,2.88,3.96,16.6,86.7,1026.42,0,0,0,0,0.039215
2018/07/01 04:20:00.013,n,147,2.52,2.16,2.88,16.6,86.7,1026.42,0,0,0,0,0.03746
2018/07/01 04:21:00.010,n,105,2.52,1.8,2.88,16.6,86.7,1026.32,0,0,0,0,0.03746
2018/07/01 04:22:00.000,n,163,2.52,2.16,3.6,16.6,86.7,1026.32,0,0,0,0,0.036621
2018/07/01 04:23:00.000,n,142,4.32,3.96,5.04,16.6,86.7,1026.32,0,0,0,0,0.040932
2018/07/01 04:24:00.000,n,132,3.24,2.88,3.24,16.6,86.8,1026.32,0,0,0,0,0.03746
2018/07/01 04:25:00.000,n,146,5.04,5.04,5.76,16.6,86.7,1026.32,0,0,0,0,0.03746
2018/07/01 04:26:00.000,n,135,3.6,2.88,4.32,16.6,86.7,1026.22,0,0,0,0,0.03746
2018/07/01 04:27:00.008,n,147,4.32,4.32,5.04,16.6,86.8,1026.22,0,0,0,0,0.043564
2018/07/01 04:28:00.006,n,148,2.88,2.88,2.88,16.6,86.8,1026.22,0,0,0,0,0.03746
2018/07/01 04:29:00.002,n,161,1.8,1.08,2.52,16.6,86.8,1026.22,0,0,0,0,0.036621
2018/07/01 04:30:00.000,n,155,4.68,3.6,5.76,16.6,86.8,1026.22,0,0,0,0,0.035706
2018/07/01 04:31:00.000,n,122,2.88,2.52,3.6,16.6,86.7,1026.22,0,0,0,0,0.036621
2018/07/01 04:32:00.000,n,144,5.04,3.6,5.76,16.5,86.7,1026.12,0,0,0,0,0.03746
2018/07/01 04:33:00.000,n,149,7.2,6.84,7.56,16.5,86.8,1026.12,0,0,0,0,0.040054
2018/07/01 04:34:00.005,n,169,7.92,7.2,8.28,16.5,86.8,1026.12,0,0,0,0,0.03746
2018/07/01 04:35:00.002,n,139,5.76,5.04,6.48,16.5,86.8,1026.12,0,0,0,0,0.040054
2018/07/01 04:36:00.000,n,140,3.24,3.24,3.6,16.5,86.8,1026.12,0,0,0,0,0.039215
2018/07/01 04:37:00.000,n,135,4.68,3.6,5.04,16.5,86.9,1026.02,0,0,0,0,0.039215
2018/07/01 04:38:00.009,n,145,7.92,7.2,8.28,16.5,86.8,1026.02,0,0,0,0,0.038338
2018/07/01 04:39:00.007,n,149,6.12,5.04,6.84,16.4,86.8,1026.02,0,0,0,0,0.035706
2018/07/01 04:40:00.000,n,144,6.48,6.12,6.84,16.4,86.8,1026.02,0,0,0,0,0.040054
2018/07/01 04:41:00.000,n,167,7.2,6.48,7.92,16.4,86.9,1026.02,0,0,0,0,0.040054
2018/07/01 04:42:00.000,n,171,5.04,4.32,5.4,16.4,86.9,1026.02,0,0,0,0,0.03746
2018/07/01 04:43:00.000,n,169,5.4,3.96,6.12,16.4,87.1,1026.02,0,0,0,0,0.036621
2018/07/01 04:44:00.008,n,183,7.56,6.84,8.28,16.4,87.1,1026.02,0,0,0,0,0.036621
2018/07/01 04:45:00.005,n,296,2.16,1.8,2.52,16.4,87.1,1026.12,0,0,0,0,0.035706
2018/07/01 04:47:00.000,n,329,2.16,1.8,2.52,16.5,87.2,1026.12,0,0,0,0,0.025253
2018/07/01 04:48:00.011,n,168,1.44,0.72,1.8,16.5,87.3,1026.22,0,0,0,0,0.027847
2018/07/01 04:49:00.000,n,154,3.6,2.88,3.96,16.5,87,1026.22,0,0,0,0,0.028763
2018/07/01 04:50:00.000,n,202,0.36,0.36,0.72,16.5,87.2,1026.22,0,0,0,0,0.031357
2018/07/01 04:51:00.003,n,52,0.72,0.36,1.08,16.5,87.2,1026.32,0,0,0,0,0.026131
2018/07/01 04:52:00.001,n,274,2.88,2.16,3.24,16.6,87.1,1026.32,0,0,0,0,0.027847
2018/07/01 04:53:00.000,n,230,2.88,2.16,3.6,16.6,86.9,1026.32,0,0,0,0,0.026131
2018/07/01 04:54:00.000,n,255,4.32,3.96,5.04,16.5,86.8,1026.32,0,0,0,0,0.026131
2018/07/01 04:55:00.008,n,269,7.2,6.84,7.56,16.5,86.7,1026.32,0,0,0,0,0.028763
2018/07/01 04:56:00.005,n,258,5.04,4.32,5.76,16.5,86.8,1026.32,0,0,0,0,0.028763
2018/07/01 04:57:00.003,n,238,5.76,5.4,6.48,16.5,86.8,1026.32,0,0,0,0,0.030479